WetterOnline ( http://www.wetteronline.de )

Wetter aktuell Leinfelden-Echterdingen

Aktuelles Wetter: Kaisersbach-Cronhütte (489m)

6-stündlich | Neueste Meldungen
Ortszeit Temperatur Wetter
Fr, 20.10. 8:00 8.0° C bedeckt
Fr, 20.10. 2:00 7.4° C bedeckt
Do, 19.10. 20:00 11.0° C leicht bewölkt
Do, 19.10. 14:00 21.0° C wolkig
Ortszeit Temperatur Wetter
Fr, 20.10. 8:30 8.1° C bedeckt
Fr, 20.10. 8:00 8.0° C bedeckt
Fr, 20.10. 7:30 8.5° C bedeckt
Fr, 20.10. 7:00 8.2° C bedeckt
Fr, 20.10. 6:30 8.0° C wolkig
Fr, 20.10. 6:00 8.0° C bedeckt
Ortszeit Relative Feuchte Sichtweite
Fr, 20.10. 8:00 97% 11 km
Fr, 20.10. 2:00 97% 14 km
Do, 19.10. 20:00 87% 40 km
Do, 19.10. 14:00 39% 50 km
Ortszeit Relative Feuchte Sichtweite
Fr, 20.10. 8:30 97% 11 km
Fr, 20.10. 8:00 97% 11 km
Fr, 20.10. 7:30 97% 13 km
Fr, 20.10. 7:00 95% 24 km
Fr, 20.10. 6:30 97% 18 km
Fr, 20.10. 6:00 95% 16 km
Ortszeit Niederschlagsmenge Niederschlagsart
Fr, 20.10. 8:00 0.0 l/m2 in 12 Std. -
Fr, 20.10. 2:00 0.0 l/m2 in 6 Std. -
Do, 19.10. 20:00 0.1 l/m2 in 12 Std. -
Do, 19.10. 14:00 0.0 l/m2 in 6 Std. -
Ortszeit Niederschlagsmenge Niederschlagsart
Fr, 20.10. 8:30 keine Meldung -
Fr, 20.10. 8:00 0.0 l/m2 in 1 Std. -
Fr, 20.10. 7:30 keine Meldung -
Fr, 20.10. 7:00 0.0 l/m2 in 1 Std. -
Fr, 20.10. 6:30 keine Meldung -
Fr, 20.10. 6:00 0.0 l/m2 in 1 Std. -
Ortszeit Stärke Spitze Richtung
km/h Bft. km/h Grad Sektor
Fr, 20.10. 8:00 4 1 7 280° W
Fr, 20.10. 2:00 0 0 7 - -
Do, 19.10. 20:00 4 1 14 280° W
Do, 19.10. 14:00 6 1 13 190° S
Ortszeit Stärke Spitze Richtung
km/h Bft. km/h Grad Sektor
Fr, 20.10. 8:30 0 0 4 - -
Fr, 20.10. 8:00 4 1 4 280° W
Fr, 20.10. 7:30 0 0 4 - -
Fr, 20.10. 7:00 0 0 4 - -
Fr, 20.10. 6:30 0 0 4 - -
Fr, 20.10. 6:00 0 0 4 - -
Ortszeit Untergrenze Bedeckung Gattung
total tief tief mittel hoch
Fr, 20.10. 8:00 3900 m 8/8 8/8 - - -
Fr, 20.10. 2:00 3600 m 8/8 8/8 - - -
Do, 19.10. 20:00 9000 m 3/8 0/8 - - -
Do, 19.10. 14:00 2400 m 5/8 4/8 - - -
Ortszeit Bedeckungsgrad in Achtel und Wolkenuntergrenze
Fr, 20.10. 8:30 8(3900m)
Fr, 20.10. 8:00 4(3900m) 8(4800m)
Fr, 20.10. 7:30 8(3600m) 8(4200m) 8(4800m)
Fr, 20.10. 7:00 5(3600m) 8(4200m)
Fr, 20.10. 6:30 1(2700m) 8(4500m) 8(5100m)
Fr, 20.10. 6:00 8(3300m)
Ortszeit Luftdruck NN (hPa) Tendenz (hPa in 3 Std.)
Fr, 20.10. 8:00 1015 + 0,2
Fr, 20.10. 2:00 1015 - 0,7
Do, 19.10. 20:00 1015 + 0,4
Do, 19.10. 14:00 1013 - 0,5
Ortszeit Luftdruck NN (hPa) Tendenz (hPa in 3 Std.)
Fr, 20.10. 8:30 1015 + 0,5
Fr, 20.10. 8:00 1015 + 0,2
Fr, 20.10. 7:30 1015 + 0,1
Fr, 20.10. 7:00 1014 0,0
Fr, 20.10. 6:30 1014 0,0
Fr, 20.10. 6:00 1015 - 0,1
Ortszeit Schneehöhe (cm)
Fr, 20.10. 8:00 0
Fr, 20.10. 2:00 0
Do, 19.10. 20:00 0
Do, 19.10. 14:00 0
Ortszeit Schneehöhe (cm)
Fr, 20.10. 8:30 0
Fr, 20.10. 8:00 0
Fr, 20.10. 7:30 0
Fr, 20.10. 7:00 0
Fr, 20.10. 6:30 0
Fr, 20.10. 6:00 0
Link zu dieser Seite / Seite empfehlen

Das Wetter in ...